This is the latest recevied weather packets stored in our database for station/object M0HPP-13. If no packets are shown the sender has not sent any weather packets the latest 10 day(s).
| Time | Temp. | Humidity | Pressure | Rain* | Wind** | Luminosity | Snow |
|---|---|---|---|---|---|---|---|
| 1787654886 | 15° C | 79% | 1019.6 hPa | 0 mm | - | 425 W/m² | - |
| 1787654286 | 15° C | 77% | 1019.4 hPa | 0 mm | - | 417 W/m² | - |
| 1787653686 | 15° C | 77% | 1019.6 hPa | 0 mm | - | 406 W/m² | - |
| 1787653086 | 14.44° C | 79% | 1019.5 hPa | 0 mm | - | 395 W/m² | - |
| 1787652486 | 14.44° C | 79% | 1019.5 hPa | 0 mm | - | 383 W/m² | - |
| 1787651886 | 14.44° C | 81% | 1019.5 hPa | 0 mm | - | 372 W/m² | - |
| 1787651286 | 14.44° C | 81% | 1019.5 hPa | 0 mm | - | 360 W/m² | - |
| 1787650686 | 14.44° C | 79% | 1019.5 hPa | 0 mm | - | 326 W/m² | - |
| 1787650086 | 13.89° C | 79% | 1019.4 hPa | 0 mm | - | 255 W/m² | - |
| 1787649486 | 13.89° C | 77% | 1019.3 hPa | 0 mm | - | 184 W/m² | - |
| 1787648886 | 14.44° C | 79% | 1019.2 hPa | 0 mm | - | 274 W/m² | - |
| 1787648286 | 13.89° C | 79% | 1019.2 hPa | 0 mm | - | 273 W/m² | - |
| 1787647686 | 13.89° C | 80% | 1019.2 hPa | 0 mm | - | 237 W/m² | - |
| 1787647086 | 13.89° C | 81% | 1019.2 hPa | 0 mm | - | 193 W/m² | - |
| 1787646486 | 13.89° C | 82% | 1019.2 hPa | 0 mm | - | 163 W/m² | - |
| 1787645886 | 13.89° C | 81% | 1019.2 hPa | 0 mm | - | 139 W/m² | - |
| 1787645286 | 13.89° C | 80% | 1019.1 hPa | 0 mm | - | 123 W/m² | - |
| 1787644686 | 13.33° C | 84% | 1019.2 hPa | 0 mm | - | 117 W/m² | - |
| 1787644086 | 13.33° C | 86% | 1019.2 hPa | 0 mm | - | 125 W/m² | - |
| 1787643486 | 13.33° C | 89% | 1019.1 hPa | 0 mm | - | 129 W/m² | - |
| 1787642886 | 12.78° C | 90% | 1019.1 hPa | 0 mm | - | 126 W/m² | - |
| 1787642286 | 12.78° C | 90% | 1019.2 hPa | 0 mm | - | 120 W/m² | - |
| 1787641686 | 12.78° C | 92% | 1019.3 hPa | 0 mm | - | 105 W/m² | - |
| 1787641086 | 12.78° C | 92% | 1019.3 hPa | 0 mm | - | 83 W/m² | - |
| 1787640486 | 12.78° C | 93% | 1019.2 hPa | 0 mm | - | 84 W/m² | - |
* Rain latest hour (hover to see other rain measurements)
** Current wind speed in m/s (hover to see current wind gust speed)